Time,TemperatureF,DewpointF,PressureIn,WindDirection,WindDirectionDegrees,WindSpeedMPH,WindSpeedGustMPH,Humidity,HourlyPrecipIn,Conditions,Clouds,dailyrainin,SolarRadiationWatts/m^2,SoftwareType,DateUTC
2013-02-14 00:11:00,66.0,56.0,30.38,NNE,30,8.0,14.0,70,0.00,,,-99.99,0.000000,,2013-02-14 10:11:00,
2013-02-14 00:21:00,66.0,56.0,30.38,NNE,30,8.0,14.0,70,0.00,,,-99.99,0.000000,,2013-02-14 10:21:00,
2013-02-14 00:31:00,66.0,56.0,30.38,NNE,30,8.0,14.0,70,0.00,,,-99.99,0.000000,,2013-02-14 10:31:00,
2013-02-14 00:41:00,66.0,56.0,30.38,NNE,30,8.0,14.0,70,0.00,,,-99.99,0.000000,,2013-02-14 10:41:00,
2013-02-14 00:52:00,66.0,56.0,30.38,NNE,30,8.0,14.0,70,0.00,,,-99.99,0.000000,,2013-02-14 10:52:00,
2013-02-14 01:21:00,67.0,57.0,30.36,NE,54,10.0,18.0,71,0.00,,,0.03,0.000000,,2013-02-14 11:21:00,
2013-02-14 01:31:00,67.0,57.0,30.36,NE,54,10.0,18.0,71,0.00,,,0.03,0.000000,,2013-02-14 11:31:00,
2013-02-14 01:42:00,67.0,57.0,30.36,NE,54,10.0,18.0,71,0.00,,,0.03,0.000000,,2013-02-14 11:42:00,
2013-02-14 01:52:00,67.0,57.0,30.36,NE,54,10.0,18.0,71,0.00,,,0.03,0.000000,,2013-02-14 11:52:00,
2013-02-14 01:53:00,67.0,54.0,30.35,NE,53,9.0,22.0,64,0.00,,,0.03,0.000000,,2013-02-14 11:53:00,
2013-02-14 02:22:00,67.0,54.0,30.35,NE,53,9.0,22.0,64,0.00,,,0.03,0.000000,,2013-02-14 12:22:00,
2013-02-14 02:32:00,67.0,54.0,30.35,NE,53,9.0,22.0,64,0.00,,,0.03,0.000000,,2013-02-14 12:32:00,
2013-02-14 02:42:00,67.0,54.0,30.35,NE,53,9.0,22.0,64,0.00,,,0.03,0.000000,,2013-02-14 12:42:00,
2013-02-14 03:21:00,64.0,52.0,30.34,NE,34,5.0,16.0,66,0.00,,,0.03,0.000000,,2013-02-14 13:21:00,
2013-02-14 03:31:00,64.0,52.0,30.34,NE,34,5.0,16.0,66,0.00,,,0.03,0.000000,,2013-02-14 13:31:00,
2013-02-14 03:41:00,64.0,52.0,30.34,NE,34,5.0,16.0,66,0.00,,,0.03,0.000000,,2013-02-14 13:41:00,
2013-02-14 03:51:00,64.0,52.0,30.34,NE,34,5.0,16.0,66,0.00,,,0.03,0.000000,,2013-02-14 13:51:00,
2013-02-14 04:21:00,67.0,58.0,30.33,East,84,14.0,23.0,72,0.00,,,0.03,0.000000,,2013-02-14 14:21:00,
2013-02-14 04:31:00,67.0,58.0,30.33,East,84,14.0,23.0,72,0.00,,,0.03,0.000000,,2013-02-14 14:31:00,
2013-02-14 04:41:00,67.0,58.0,30.33,East,84,14.0,23.0,72,0.00,,,0.03,0.000000,,2013-02-14 14:41:00,
2013-02-14 04:52:00,67.0,58.0,30.33,East,84,14.0,23.0,72,0.00,,,0.03,0.000000,,2013-02-14 14:52:00,
2013-02-14 05:11:00,66.0,56.0,30.32,NE,51,11.0,20.0,69,0.00,,,0.03,0.000000,,2013-02-14 15:11:00,
2013-02-14 05:21:00,66.0,56.0,30.32,NE,51,11.0,20.0,69,0.00,,,0.03,0.000000,,2013-02-14 15:21:00,
2013-02-14 05:31:00,66.0,56.0,30.32,NE,51,11.0,20.0,69,0.00,,,0.03,0.000000,,2013-02-14 15:31:00,
2013-02-14 05:41:00,66.0,56.0,30.32,NE,51,11.0,20.0,69,0.00,,,0.03,0.000000,,2013-02-14 15:41:00,
2013-02-14 05:51:00,66.0,56.0,30.32,NE,51,11.0,20.0,69,0.00,,,0.03,0.000000,,2013-02-14 15:51:00,
2013-02-14 06:11:00,64.0,54.0,30.34,ENE,57,5.0,15.0,70,0.00,,,0.03,0.000000,,2013-02-14 16:11:00,
2013-02-14 06:21:00,64.0,54.0,30.34,ENE,57,5.0,15.0,70,0.00,,,0.03,0.000000,,2013-02-14 16:21:00,
2013-02-14 06:31:00,64.0,54.0,30.34,ENE,57,5.0,15.0,70,0.00,,,0.03,0.000000,,2013-02-14 16:31:00,
2013-02-14 06:41:00,64.0,54.0,30.34,ENE,57,5.0,15.0,70,0.00,,,0.03,0.000000,,2013-02-14 16:41:00,
2013-02-14 06:51:00,64.0,54.0,30.34,ENE,57,5.0,15.0,70,0.00,,,0.03,0.000000,,2013-02-14 16:51:00,
2013-02-14 07:11:00,66.0,56.0,30.36,ENE,62,9.0,16.0,71,0.00,,,0.03,0.000000,,2013-02-14 17:11:00,
2013-02-14 07:21:00,66.0,56.0,30.36,ENE,62,9.0,16.0,71,0.00,,,0.03,0.000000,,2013-02-14 17:21:00,
2013-02-14 07:31:00,66.0,56.0,30.36,ENE,62,9.0,16.0,71,0.00,,,0.03,0.000000,,2013-02-14 17:31:00,
2013-02-14 07:41:00,66.0,56.0,30.36,ENE,62,9.0,16.0,71,0.00,,,0.03,0.000000,,2013-02-14 17:41:00,
2013-02-14 07:52:00,66.0,56.0,30.36,ENE,62,9.0,16.0,71,0.00,,,0.03,0.000000,,2013-02-14 17:52:00,
2013-02-14 08:22:00,65.0,59.0,30.37,East,85,16.0,27.0,80,0.00,,,0.03,0.000000,,2013-02-14 18:22:00,
2013-02-14 08:31:00,65.0,59.0,30.37,East,85,16.0,27.0,80,0.00,,,0.03,0.000000,,2013-02-14 18:31:00,
2013-02-14 08:41:00,65.0,59.0,30.37,East,85,16.0,27.0,80,0.00,,,0.03,0.000000,,2013-02-14 18:41:00,
2013-02-14 08:51:00,65.0,59.0,30.37,East,85,16.0,27.0,80,0.00,,,0.03,0.000000,,2013-02-14 18:51:00,
2013-02-14 09:11:00,67.0,58.0,30.38,ENE,62,10.0,26.0,73,0.00,,,0.03,27.000000,,2013-02-14 19:11:00,
2013-02-14 09:21:00,67.0,58.0,30.38,ENE,62,10.0,26.0,73,0.00,,,0.03,27.000000,,2013-02-14 19:21:00,
2013-02-14 09:31:00,67.0,58.0,30.38,ENE,62,10.0,26.0,73,0.00,,,0.03,27.000000,,2013-02-14 19:31:00,
2013-02-14 09:41:00,67.0,58.0,30.38,ENE,62,10.0,26.0,73,0.00,,,0.03,27.000000,,2013-02-14 19:41:00,
2013-02-14 09:51:00,67.0,58.0,30.38,ENE,62,10.0,26.0,73,0.00,,,0.03,27.000000,,2013-02-14 19:51:00,
2013-02-14 10:21:00,71.0,62.0,30.39,East,100,14.0,25.0,72,0.00,,,0.03,229.000000,,2013-02-14 20:21:00,
2013-02-14 10:31:00,71.0,62.0,30.39,East,100,14.0,25.0,72,0.00,,,0.03,229.000000,,2013-02-14 20:31:00,
2013-02-14 10:41:00,71.0,62.0,30.39,East,100,14.0,25.0,72,0.00,,,0.03,229.000000,,2013-02-14 20:41:00,
2013-02-14 10:52:00,71.0,62.0,30.39,East,100,14.0,25.0,72,0.00,,,0.03,229.000000,,2013-02-14 20:52:00,
2013-02-14 11:11:00,69.0,59.0,30.39,East,92,13.0,23.0,70,0.00,,,0.03,459.000000,,2013-02-14 21:11:00,
2013-02-14 11:21:00,69.0,59.0,30.39,East,92,13.0,23.0,70,0.00,,,0.03,459.000000,,2013-02-14 21:21:00,
2013-02-14 11:31:00,69.0,59.0,30.39,East,92,13.0,23.0,70,0.00,,,0.03,459.000000,,2013-02-14 21:31:00,
2013-02-14 11:41:00,69.0,59.0,30.39,East,92,13.0,23.0,70,0.00,,,0.03,459.000000,,2013-02-14 21:41:00,
2013-02-14 11:51:00,69.0,59.0,30.39,East,92,13.0,23.0,70,0.00,,,0.03,459.000000,,2013-02-14 21:51:00,
2013-02-14 12:21:00,70.0,59.0,30.36,East,88,17.0,27.0,69,0.00,,,0.03,463.000000,,2013-02-14 22:21:00,
2013-02-14 12:31:00,70.0,59.0,30.36,East,88,17.0,27.0,69,0.00,,,0.03,463.000000,,2013-02-14 22:31:00,
2013-02-14 12:41:00,70.0,59.0,30.36,East,88,17.0,27.0,69,0.00,,,0.03,463.000000,,2013-02-14 22:41:00,
2013-02-14 12:51:00,70.0,59.0,30.36,East,88,17.0,27.0,69,0.00,,,0.03,463.000000,,2013-02-14 22:51:00,
2013-02-14 13:11:00,73.0,61.0,30.34,East,93,18.0,31.0,65,0.00,,,0.03,362.000000,,2013-02-14 23:11:00,
2013-02-14 13:21:00,73.0,61.0,30.34,East,93,18.0,31.0,65,0.00,,,0.03,362.000000,,2013-02-14 23:21:00,
2013-02-14 13:31:00,73.0,61.0,30.34,East,93,18.0,31.0,65,0.00,,,0.03,362.000000,,2013-02-14 23:31:00,
2013-02-14 13:41:00,73.0,61.0,30.34,East,93,18.0,31.0,65,0.00,,,0.03,362.000000,,2013-02-14 23:41:00,
2013-02-14 13:52:00,73.0,61.0,30.34,East,93,18.0,31.0,65,0.00,,,0.03,362.000000,,2013-02-14 23:52:00,
2013-02-14 14:11:00,74.0,59.0,30.31,East,92,18.0,29.0,60,0.00,,,0.03,864.000000,,2013-02-15 00:11:00,
2013-02-14 14:21:00,74.0,59.0,30.31,East,92,18.0,29.0,60,0.00,,,0.03,864.000000,,2013-02-15 00:21:00,
2013-02-14 14:31:00,74.0,59.0,30.31,East,92,18.0,29.0,60,0.00,,,0.03,864.000000,,2013-02-15 00:31:00,
2013-02-14 14:41:00,74.0,59.0,30.31,East,92,18.0,29.0,60,0.00,,,0.03,864.000000,,2013-02-15 00:41:00,
2013-02-14 14:51:00,74.0,59.0,30.31,East,92,18.0,29.0,60,0.00,,,0.03,864.000000,,2013-02-15 00:51:00,
2013-02-14 15:11:00,73.0,61.0,30.30,East,92,21.0,32.0,65,0.00,,,0.00,866.000000,,2013-02-15 01:11:00,
2013-02-14 15:21:00,73.0,61.0,30.30,East,92,21.0,32.0,65,0.00,,,0.00,866.000000,,2013-02-15 01:21:00,
2013-02-14 15:31:00,73.0,61.0,30.30,East,92,21.0,32.0,65,0.00,,,0.00,866.000000,,2013-02-15 01:31:00,
2013-02-14 15:41:00,73.0,61.0,30.30,East,92,21.0,32.0,65,0.00,,,0.00,866.000000,,2013-02-15 01:41:00,
2013-02-14 15:51:00,73.0,61.0,30.30,East,92,21.0,32.0,65,0.00,,,0.00,866.000000,,2013-02-15 01:51:00,
2013-02-14 16:11:00,70.0,60.0,30.29,East,94,21.0,33.0,70,0.00,,,0.00,823.000000,,2013-02-15 02:11:00,
2013-02-14 16:21:00,70.0,60.0,30.29,East,94,21.0,33.0,70,0.00,,,0.00,823.000000,,2013-02-15 02:21:00,
2013-02-14 16:31:00,70.0,60.0,30.29,East,94,21.0,33.0,70,0.00,,,0.00,823.000000,,2013-02-15 02:31:00,
2013-02-14 16:41:00,70.0,60.0,30.29,East,94,21.0,33.0,70,0.00,,,0.00,823.000000,,2013-02-15 02:41:00,
2013-02-14 16:51:00,70.0,60.0,30.29,East,94,21.0,33.0,70,0.00,,,0.00,823.000000,,2013-02-15 02:51:00,
2013-02-14 17:21:00,70.0,59.0,30.30,East,86,19.0,31.0,67,0.00,,,0.00,551.000000,,2013-02-15 03:21:00,
2013-02-14 17:32:00,70.0,59.0,30.30,East,86,19.0,31.0,67,0.00,,,0.00,551.000000,,2013-02-15 03:32:00,
2013-02-14 17:41:00,70.0,59.0,30.30,East,86,19.0,31.0,67,0.00,,,0.00,551.000000,,2013-02-15 03:41:00,
2013-02-14 17:51:00,70.0,59.0,30.30,East,86,19.0,31.0,67,0.00,,,0.00,551.000000,,2013-02-15 03:51:00,
2013-02-14 18:11:00,70.0,59.0,30.30,East,84,17.0,29.0,69,0.00,,,0.00,300.000000,,2013-02-15 04:11:00,
2013-02-14 18:21:00,70.0,59.0,30.30,East,84,17.0,29.0,69,0.00,,,0.00,300.000000,,2013-02-15 04:21:00,
2013-02-14 18:31:00,70.0,59.0,30.30,East,84,17.0,29.0,69,0.00,,,0.00,300.000000,,2013-02-15 04:31:00,
2013-02-14 18:41:00,70.0,59.0,30.30,East,84,17.0,29.0,69,0.00,,,0.00,300.000000,,2013-02-15 04:41:00,
2013-02-14 18:51:00,70.0,59.0,30.30,East,84,17.0,29.0,69,0.00,,,0.00,300.000000,,2013-02-15 04:51:00,
2013-02-14 19:11:00,68.0,58.0,30.32,East,88,15.0,27.0,71,0.00,,,0.00,130.000000,,2013-02-15 05:11:00,
2013-02-14 19:22:00,68.0,58.0,30.32,East,88,15.0,27.0,71,0.00,,,0.00,130.000000,,2013-02-15 05:22:00,
2013-02-14 19:32:00,68.0,58.0,30.32,East,88,15.0,27.0,71,0.00,,,0.00,130.000000,,2013-02-15 05:32:00,
2013-02-14 19:41:00,68.0,58.0,30.32,East,88,15.0,27.0,71,0.00,,,0.00,130.000000,,2013-02-15 05:41:00,
2013-02-14 19:52:00,68.0,58.0,30.32,East,88,15.0,27.0,71,0.00,,,0.00,130.000000,,2013-02-15 05:52:00,
2013-02-14 20:11:00,69.0,59.0,30.33,East,86,16.0,27.0,71,0.00,,,0.00,15.000000,,2013-02-15 06:11:00,
2013-02-14 20:21:00,69.0,59.0,30.33,East,86,16.0,27.0,71,0.00,,,0.00,15.000000,,2013-02-15 06:21:00,
2013-02-14 20:31:00,69.0,59.0,30.33,East,86,16.0,27.0,71,0.00,,,0.00,15.000000,,2013-02-15 06:31:00,
2013-02-14 20:42:00,69.0,59.0,30.33,East,86,16.0,27.0,71,0.00,,,0.00,15.000000,,2013-02-15 06:42:00,
2013-02-14 20:51:00,69.0,59.0,30.33,East,86,16.0,27.0,71,0.00,,,0.00,15.000000,,2013-02-15 06:51:00,
2013-02-14 21:11:00,69.0,59.0,30.34,East,92,17.0,28.0,71,0.00,,,-99.99,0.000000,,2013-02-15 07:11:00,
2013-02-14 21:21:00,69.0,59.0,30.34,East,92,17.0,28.0,71,0.00,,,-99.99,0.000000,,2013-02-15 07:21:00,
2013-02-14 21:31:00,69.0,59.0,30.34,East,92,17.0,28.0,71,0.00,,,-99.99,0.000000,,2013-02-15 07:31:00,
2013-02-14 21:41:00,69.0,59.0,30.34,East,92,17.0,28.0,71,0.00,,,-99.99,0.000000,,2013-02-15 07:41:00,
2013-02-14 21:52:00,69.0,59.0,30.34,East,92,17.0,28.0,71,0.00,,,-99.99,0.000000,,2013-02-15 07:52:00,
2013-02-14 22:11:00,67.0,59.0,30.34,East,81,14.0,29.0,75,0.00,,,0.00,0.000000,,2013-02-15 08:11:00,
2013-02-14 22:21:00,67.0,59.0,30.34,East,81,14.0,29.0,75,0.00,,,0.00,0.000000,,2013-02-15 08:21:00,
2013-02-14 22:31:00,67.0,59.0,30.34,East,81,14.0,29.0,75,0.00,,,0.00,0.000000,,2013-02-15 08:31:00,
2013-02-14 22:41:00,67.0,59.0,30.34,East,81,14.0,29.0,75,0.00,,,0.00,0.000000,,2013-02-15 08:41:00,
2013-02-14 22:52:00,67.0,59.0,30.34,East,81,14.0,29.0,75,0.00,,,0.00,0.000000,,2013-02-15 08:52:00,
2013-02-14 23:12:00,69.0,58.0,30.32,East,92,18.0,33.0,68,0.00,,,0.00,0.000000,,2013-02-15 09:12:00,
2013-02-14 23:21:00,69.0,58.0,30.32,East,92,18.0,33.0,68,0.00,,,0.00,0.000000,,2013-02-15 09:21:00,
2013-02-14 23:31:00,69.0,58.0,30.32,East,92,18.0,33.0,68,0.00,,,0.00,0.000000,,2013-02-15 09:31:00,
2013-02-14 23:41:00,69.0,58.0,30.32,East,92,18.0,33.0,68,0.00,,,0.00,0.000000,,2013-02-15 09:41:00,
2013-02-14 23:51:00,69.0,58.0,30.32,East,92,18.0,33.0,68,0.00,,,0.00,0.000000,,2013-02-15 09:51:00,